CZ-6A DEB, 55878

Orbit data source: Space-Track

CZ-6A DEB, 55878 is space debris in SSO originally from a launch on Fri, 11 Nov 2022 UTC launched from the Taiyaun Space Center, China (TSC). Debris objects in space refer to the collection of defunct objects orbiting the Earth. Examples of debris include non-operational satellites, rocket bodies, and fragments generated from explosions, collisions, or faulty payload assembly.

Loading next visibility...
Identifier
55878, 2022-151AAA
Orbit
SSO
Country
Flag of CNCN / PRC
Related business
Manufacturer
SAST
Mission
Spacecraft
Bus & Motor
Unknown
Mass
Unknown
Launch date (UTC)
2022-11-11 (3 years ago)
Launch vehicle
Unknown
Launch site
Taiyaun Space Center, China (TSC)
Object type
Payload
Rocket body
Debris
Shape & HBR
Unknown shape, 0.1 m
Radar Cross Section
Small (<0.1 m²)

Expand to show TLE details & history
Last TLE update: 13 hours ago

TLE from 13 hours ago
0 CZ-6A DEB
1 55878U 22151AAA 25352.70873667  .00037152  00000-0  28298-2 0  9994
2 55878  98.6321  71.7193 0069191  48.8440 311.8722 15.00045694153047
Epoch: 2025-12-18T17:00Z
TLE epoch observation values (Epoch: 2025-12-18T17:00:34.848Z)
Latitude
-0.00003°
Longitude
89.01374°
Altitude
537.886 km
Speed
7.611 km/s
True Right ascension
04h 46m 52s
True Declination
0° 00' 00"
Sunlit
Object was in full shadow at epoch
Visualization orbit readout
Latitude
Unknown
Longitude
Unknown
Altitude
Unknown
Speed
Unknown
Apparent Right ascension
Unknown
Apparent Declination
Unknown
Sunlit
N/A
Visualization observer readout
Local Sidereal Time
04:25:09
Azimuth
Unknown
Elevation
Unknown
Doppler factor
Unknown
Orbital elements
Apogee altitude
611.836 km
Perigee altitude
515.772 km
Semi-major axis
6,941.941 km
Eccentricity
0.00692
Inclination
98.6321°
RAAN
71.7193°
Arg. of periapsis
48.844°
True anomaly
311.27838°
Mean anomaly
311.8722°
Eccentric anomaly
311.57563°
Mean motion
3.75251 °/min
Orbital period
95.94 mins
BSTAR
0.0028298
Loading maneuver chart data...
Computing Atmospheric mass density...
Loading historical data...
Loading historical data...
Loading historical data...
Loading historical data...
Loading historical data...
Loading historical data...
Loading historical data...

Documentation

Showing up to 5 results
|